Weather History for Gwinn, MI

Change the Weather History Date:

Wednesday, February 8, 2012

  Actual Average (KESC) Record (KESC)
Temperature  
Mean Temperature 22 °F -  
Max Temperature 36 °F 25 °F 51 °F (1991)
Min Temperature 8 °F 4 °F -14 °F (1997)
Degree Days  
Heating Degree Days 44    
Moisture  
Dew Point -1 °F    
Average Humidity 48    
Maximum Humidity 73    
Minimum Humidity 17    
Precipitation  
Precipitation 0.00 in - - ()
Sea Level Pressure  
Sea Level Pressure 30.17 in    
Wind  
Wind Speed 6 mph (West)    
Max Wind Speed 15 mph    
Max Gust Speed 21 mph    
Visibility 10 miles    
Events      
Averages and records for this station are not official NWS values.
T = Trace of Precipitation, MM = Missing Value Source: NWS Daily Summary

Daily Weather History Graph

Daily Weather History Graph

Search for Another Location

Airport:

Trip Planner

Search our weather history database for the weather conditions in past years. The results will help you decide how hot, cold, wet, or windy it might be!

Date:

Astronomy

Feb. 08, 2012 Rise Set
Actual Time 8:04 AM EST 6:04 PM EST
Civil Twilight 7:32 AM EST 6:35 PM EST
Nautical Twilight 6:57 AM EST 7:11 PM EST
Astronomical Twilight 6:22 AM EST 7:46 PM EST
Moon 7:31 PM EST (2/8) 8:01 AM EST (2/8)
Length of Visible Light 11h 02m
Length of Day
9h 59m
Full, 99% of the Moon is Illuminated
Feb 8
Full
Feb 14
Last Quarter
Feb 21
New
Feb 29
First Quarter
Mar 8
Full

Hourly Weather History & Observations

Time (EST) Temp. Windchill Dew Point Humidity Pressure Visibility Wind Dir Wind Speed Gust Speed Precip Events Conditions
12:17 AM 10.8 °F -1.1 °F 1.0 °F 65% 30.31 in 10.0 mi West 8.1 mph - N/A   Clear
12:37 AM 12.2 °F 1.7 °F 1.4 °F 62% 30.30 in 10.0 mi West 6.9 mph - N/A   Clear
12:57 AM 12.7 °F -0.4 °F 3.2 °F 66% 30.30 in 10.0 mi West 10.4 mph - N/A   Clear
1:16 AM 12.6 °F 0.2 °F 2.8 °F 65% 30.30 in 10.0 mi West 9.2 mph - N/A   Clear
1:37 AM 12.7 °F - 3.0 °F 65% 30.29 in 10.0 mi Calm Calm - N/A   Clear
1:57 AM 12.7 °F - 3.2 °F 66% 30.29 in 10.0 mi Calm Calm - N/A   Clear
2:16 AM 12.6 °F - 3.2 °F 66% 30.28 in 10.0 mi Calm Calm - N/A   Clear
2:37 AM 11.8 °F - 2.5 °F 66% 30.28 in 10.0 mi Calm Calm - N/A   Clear
2:57 AM 11.8 °F - 2.7 °F 67% 30.27 in 10.0 mi Calm Calm - N/A   Clear
3:16 AM 11.3 °F - 2.7 °F 68% 30.27 in 10.0 mi Calm Calm - N/A   Clear
3:37 AM 10.4 °F - 2.3 °F 70% 30.26 in 10.0 mi Calm Calm - N/A   Clear
3:57 AM 9.0 °F - 1.2 °F 71% 30.25 in 10.0 mi Calm Calm - N/A   Clear
4:16 AM 8.4 °F - 1.4 °F 73% 30.25 in 10.0 mi Calm Calm - N/A   Clear
4:37 AM 10.2 °F - 2.7 °F 72% 30.23 in 10.0 mi Calm Calm - N/A   Clear
4:57 AM 11.3 °F - 3.2 °F 70% 30.23 in 10.0 mi Calm Calm - N/A   Clear
5:17 AM 12.4 °F - 3.9 °F 69% 30.22 in 10.0 mi Calm Calm - N/A   Clear
5:37 AM 12.7 °F - 3.9 °F 68% 30.22 in 10.0 mi Calm Calm - N/A   Clear
5:57 AM 12.2 °F - 3.4 °F 68% 30.22 in 10.0 mi Calm Calm - N/A   Clear
6:50 AM 8.6 °F 2.0 °F 1.4 °F 73% 30.21 in 10.0 mi West 3.5 mph - N/A   Clear
7:50 AM 10.4 °F - 3.2 °F 73% 30.20 in 10.0 mi Calm Calm - N/A   Clear
8:55 AM 10.4 °F 2.2 °F 3.2 °F 73% 30.19 in 10.0 mi WSW 4.6 mph - N/A   Clear
9:50 AM 17.6 °F 6.4 °F 5.0 °F 58% 30.19 in 10.0 mi West 9.2 mph - N/A   Clear
10:50 AM 23.0 °F 12.4 °F 5.0 °F 46% 30.17 in 10.0 mi West 10.4 mph - N/A   Clear
11:50 AM 28.4 °F 19.1 °F 1.4 °F 31% 30.16 in 10.0 mi West 10.4 mph - N/A   Clear
12:50 PM 32.0 °F 25.6 °F -2.2 °F 23% 30.13 in 10.0 mi West 6.9 mph - N/A   Clear
1:50 PM 35.6 °F 27.1 °F -2.2 °F 20% 30.11 in 10.0 mi West 12.7 mph - N/A   Clear
2:50 PM 35.6 °F 28.6 °F -4.0 °F 18% 30.09 in 10.0 mi WSW 9.2 mph - N/A   Clear
3:50 PM 35.6 °F 27.5 °F -5.8 °F 17% 30.07 in 10.0 mi West 11.5 mph - N/A   Clear
4:55 PM 35.6 °F 26.6 °F -5.8 °F 17% 30.06 in 10.0 mi WNW 13.8 mph - N/A   Clear
5:50 PM 33.8 °F 25.8 °F -7.6 °F 17% 30.04 in 10.0 mi WSW 10.4 mph - N/A   Clear
6:50 PM 30.2 °F 21.9 °F -7.6 °F 19% 30.04 in 10.0 mi WSW 9.2 mph - N/A   Clear
7:51 PM 30.2 °F 19.3 °F -5.8 °F 21% 30.03 in 10.0 mi WSW 15.0 mph - N/A   Clear
8:55 PM 28.4 °F 17.5 °F -7.6 °F 21% 30.02 in 10.0 mi West 13.8 mph 20.7 mph N/A   Clear
9:50 PM 26.6 °F 16.2 °F -5.8 °F 24% 30.02 in 10.0 mi West 11.5 mph - N/A   Clear
10:16 PM 26.6 °F 16.2 °F -6.9 °F 23% 30.02 in 10.0 mi West 11.5 mph - N/A   Clear
10:37 PM 26.2 °F 15.2 °F -6.3 °F 24% 30.02 in 10.0 mi West 12.7 mph 17.3 mph N/A   Clear
10:57 PM 26.4 °F 18.0 °F -7.8 °F 22% 30.02 in 10.0 mi West 8.1 mph 16.1 mph N/A   Clear
11:16 PM 26.2 °F 15.8 °F -7.8 °F 22% 30.02 in 10.0 mi West 11.5 mph 17.3 mph N/A   Clear
11:37 PM 26.2 °F 15.2 °F -7.2 °F 23% 30.02 in 10.0 mi West 12.7 mph - N/A   Clear
11:57 PM 26.1 °F 15.6 °F -6.5 °F 24% 30.01 in 10.0 mi West 11.5 mph - N/A   Clear